Location: Praha
(50.0830°N, 14.4670°E)
Time: 22:46:32
(UTC+01:00)

ISS - Pass Details

Date: 24 November 2021
Orbit: 417 x 423 km, 51.6° (Epoch: 28 November)

Event Time Altitude Azimuth Distance (km) Brightness Sun altitude
Rises 17:45:53 0° 242° (WSW) 2,372 1.7 -15.2°
Reaches altitude 10° 17:47:59 10° 240° (WSW) 1,510 0.3 -15.6°
Maximum altitude 17:51:21 65° 158° (SSE) 468 -3.6 -16.1°
Enters shadow 17:52:21 40° 91° (E) 636 -3.4 -16.3°
